| time (UTC) | temp C | wind direction | speed KPH | gust KPH | rain 1hr cm | rain 24hr cm | rain mn cm | humidity % | barometer mb |
| 20260508111638 | 11 | 0 | 9.7 | 17.7 | 0.00 | 0.00 | 0.00 | 7 | 1001.9 |
| 20260508111131 | 11 | 0 | 9.7 | 17.7 | 0.00 | 0.00 | 0.00 | 8 | 1003.4 |
| 20260508110624 | 11 | 0 | 11.3 | 17.7 | 0.00 | 0.00 | 0.00 | 7 | 1001.9 |
| 20260508110117 | 11 | 0 | 9.7 | 20.9 | 0.00 | 0.00 | 0.00 | 7 | 1001.6 |
| 20260508105609 | 11 | 315 | 9.7 | 16.1 | 0.00 | 0.00 | 0.00 | 7 | 1002.4 |
| 20260508105102 | 11 | 90 | 8.0 | 12.9 | 0.00 | 0.00 | 0.00 | 7 | 1001.9 |
| 20260508104555 | 11 | 0 | 11.3 | 20.9 | 0.00 | 0.00 | 0.00 | 7 | 1000.8 |
| 20260508104047 | 10 | 90 | 14.5 | 20.9 | 0.00 | 0.00 | 0.00 | 7 | 1000.5 |
| 20260508103540 | 11 | 0 | 12.9 | 19.3 | 0.00 | 0.00 | 0.00 | 7 | 999.5 |
| 20260508103033 | 11 | 0 | 0.0 | 0.0 | 0.00 | 0.00 | 0.00 | 7 | 1000.5 |
| 20260508102526 | 11 | 0 | 6.4 | 8.0 | 0.00 | 0.00 | 0.00 | 7 | 999.7 |
| 20260508102019 | 11 | -1 | 11.3 | 17.7 | 0.00 | 0.00 | 0.00 | 6 | 999.7 |
| 20260508101512 | 11 | 315 | 0.0 | 0.0 | 0.00 | 0.00 | 0.00 | 5 | 1005.7 |
| 20260508101005 | 11 | 0 | 0.0 | 0.0 | 0.00 | 0.00 | 0.00 | 7 | 1000.7 |
| 20260508100458 | 11 | -1 | 0.0 | 0.0 | 0.00 | 0.00 | 0.00 | 6 | 999.6 |
| 20260508095950 | 10 | 90 | 0.0 | 0.0 | 0.00 | 0.00 | 0.00 | 6 | 1003.6 |
| 20260508095443 | 11 | -1 | 0.0 | 0.0 | 0.00 | 0.00 | 0.00 | 6 | 1002.7 |
| 20260508094935 | 10 | 45 | 0.0 | 0.0 | 0.00 | 0.00 | 0.00 | 6 | 1001.2 |
| 20260508094428 | 10 | 90 | 0.0 | 0.0 | 0.00 | 0.00 | 0.00 | 6 | 1003.7 |
| 20260508093921 | 10 | 0 | 0.0 | 0.0 | 0.00 | 0.00 | 0.00 | 7 | 1001.8 |
| 20260508093414 | 10 | 45 | 0.0 | 0.0 | 0.00 | 0.00 | 0.00 | 7 | 1002.7 |
| 20260508092907 | 10 | 45 | 0.0 | 0.0 | 0.00 | 0.00 | 0.00 | 7 | 1001.4 |
| 20260508092400 | 10 | 45 | 0.0 | 0.0 | 0.00 | 0.00 | 0.00 | 7 | 1002.1 |
| 20260508091853 | 10 | 45 | 0.0 | 0.0 | 0.00 | 0.00 | 0.00 | 7 | 1003.4 |
| 20260508091345 | 10 | 0 | 0.0 | 0.0 | 0.00 | 0.00 | 0.00 | 7 | 1000.3 |
| 20260508090837 | 10 | 45 | 0.0 | 0.0 | 0.00 | 0.00 | 0.00 | 7 | 1004.6 |
| 20260508090329 | 10 | 90 | 0.0 | 0.0 | 0.00 | 0.00 | 0.00 | 7 | 1005.8 |
| 20260508085822 | 9 | 135 | 0.0 | 0.0 | 0.00 | 0.00 | 0.00 | 7 | 1004.2 |
| 20260508085314 | 9 | 45 | 0.0 | 0.0 | 0.00 | 0.00 | 0.00 | 7 | 1003.0 |
| 20260508084807 | 9 | 0 | 0.0 | 0.0 | 0.00 | 0.00 | 0.00 | 7 | 1002.9 |
| 20260508084300 | 9 | 90 | 0.0 | 0.0 | 0.00 | 0.00 | 0.00 | 7 | 1002.8 |
| 20260508083752 | 9 | 0 | 0.0 | 0.0 | 0.00 | 0.00 | 0.00 | 7 | 1000.5 |
| 20260508083245 | 8 | 45 | 0.0 | 0.0 | 0.00 | 0.00 | 0.00 | 7 | 1002.6 |
| 20260508082738 | 9 | 45 | 0.0 | 0.0 | 0.00 | 0.00 | 0.00 | 7 | 1002.2 |
| 20260508082230 | 9 | 90 | 0.0 | 0.0 | 0.00 | 0.00 | 0.00 | 7 | 1004.7 |
| 20260508081722 | 9 | 45 | 0.0 | 0.0 | 0.00 | 0.00 | 0.00 | 7 | 1002.6 |
| 20260508081215 | 8 | 90 | 0.0 | 0.0 | 0.00 | 0.00 | 0.00 | 7 | 1006.2 |
| 20260508080707 | 8 | 45 | 0.0 | 0.0 | 0.00 | 0.00 | 0.00 | 7 | 1001.6 |
| 20260508080200 | 8 | 45 | 0.0 | 0.0 | 0.00 | 0.00 | 0.00 | 7 | 1001.3 |
| 20260508075653 | 8 | 0 | 0.0 | 0.0 | 0.00 | 0.00 | 0.00 | 8 | 1001.6 |
| 20260508075146 | 8 | 45 | 0.0 | 0.0 | 0.00 | 0.00 | 0.00 | 8 | 1001.5 |
| 20260508074638 | 8 | 90 | 0.0 | 0.0 | 0.00 | 0.00 | 0.00 | 8 | 1004.1 |
| 20260508074130 | 8 | 45 | 0.0 | 0.0 | 0.00 | 0.00 | 0.00 | 8 | 1001.8 |
| 20260508073622 | 8 | 45 | 0.0 | 0.0 | 0.00 | 0.00 | 0.00 | 7 | 1001.6 |
| 20260508073114 | 8 | 90 | 0.0 | 0.0 | 0.00 | 0.00 | 0.00 | 7 | 1001.6 |
| 20260508072607 | 8 | -1 | 0.0 | 0.0 | 0.00 | 0.00 | 0.00 | 7 | 1004.1 |
| 20260508072059 | 7 | 90 | 0.0 | 0.0 | 0.00 | 0.00 | 0.00 | 7 | 1004.6 |
| 20260508071552 | 7 | 135 | 0.0 | 0.0 | 0.00 | 0.00 | 0.00 | 7 | 1004.4 |
| 20260508071045 | 7 | 45 | 0.0 | 0.0 | 0.00 | 0.00 | 0.00 | 7 | 1004.1 |
| 20260508070537 | 7 | 90 | 0.0 | 0.0 | 0.00 | 0.00 | 0.00 | 7 | 1005.1 |
| 20260508070030 | 7 | 45 | 0.0 | 0.0 | 0.00 | 0.00 | 0.00 | 8 | 1003.2 |
| 20260508065522 | 7 | 45 | 0.0 | 0.0 | 0.00 | 0.00 | 0.00 | 8 | 1001.9 |
| 20260508065015 | 7 | 45 | 0.0 | 0.0 | 0.00 | 0.00 | 0.00 | 8 | 1003.4 |
| 20260508064507 | 7 | 45 | 0.0 | 0.0 | 0.00 | 0.00 | 0.00 | 7 | 1001.6 |
| 20260508064000 | 7 | 90 | 0.0 | 0.0 | 0.00 | 0.00 | 0.00 | 8 | 1003.5 |
| 20260508063453 | 7 | 0 | 0.0 | 0.0 | 0.00 | 0.00 | 0.00 | 8 | 1002.4 |
| 20260508062946 | 7 | 45 | 0.0 | 0.0 | 0.00 | 0.00 | 0.00 | 8 | 1002.5 |
| 20260508062438 | 7 | 45 | 0.0 | 0.0 | 0.00 | 0.00 | 0.00 | 8 | 1002.1 |
| 20260508061931 | 7 | 45 | 0.0 | 0.0 | 0.00 | 0.00 | 0.00 | 8 | 1001.9 |
| 20260508061424 | 7 | 45 | 0.0 | 0.0 | 0.00 | 0.00 | 0.00 | 8 | 1001.3 |
| 20260508060917 | 7 | 45 | 0.0 | 0.0 | 0.00 | 0.00 | 0.00 | 8 | 1002.5 |
| 20260508060410 | 7 | 45 | 0.0 | 0.0 | 0.00 | 0.00 | 0.00 | 8 | 1001.4 |
| 20260508055903 | 7 | 0 | 0.0 | 0.0 | 0.00 | 0.00 | 0.00 | 8 | 1002.4 |
| 20260508055356 | 7 | 45 | 0.0 | 0.0 | 0.00 | 0.00 | 0.00 | 8 | 1002.0 |
| 20260508054848 | 7 | 45 | 0.0 | 0.0 | 0.00 | 0.00 | 0.00 | 9 | 1002.0 |
| 20260508054341 | 7 | 45 | 0.0 | 0.0 | 0.00 | 0.00 | 0.00 | 8 | 1002.2 |
| 20260508053834 | 7 | 45 | 0.0 | 0.0 | 0.00 | 0.00 | 0.00 | 8 | 1002.1 |
| 20260508053327 | 7 | 0 | 0.0 | 0.0 | 0.00 | 0.00 | 0.00 | 9 | 1003.1 |
| 20260508052820 | 7 | -1 | 0.0 | 0.0 | 0.00 | 0.00 | 0.00 | 9 | 1002.9 |
| 20260508052313 | 7 | 45 | 0.0 | 0.0 | 0.00 | 0.00 | 0.00 | 9 | 1003.1 |
| 20260508051806 | 7 | 0 | 0.0 | 0.0 | 0.00 | 0.00 | 0.00 | 9 | 1002.4 |
| 20260508051259 | 7 | 0 | 0.0 | 0.0 | 0.00 | 0.00 | 0.00 | 9 | 1002.0 |
| 20260508050752 | 7 | 45 | 0.0 | 0.0 | 0.00 | 0.00 | 0.00 | 9 | 1002.4 |
| 20260508050245 | 7 | -1 | 0.0 | 0.0 | 0.00 | 0.00 | 0.00 | 9 | 1002.3 |
| 20260508045737 | 7 | 45 | 0.0 | 0.0 | 0.00 | 0.00 | 0.00 | 9 | 1002.1 |
| 20260508045230 | 7 | 45 | 0.0 | 0.0 | 0.00 | 0.00 | 0.00 | 9 | 1001.3 |
| 20260508044723 | 7 | 45 | 0.0 | 0.0 | 0.00 | 0.00 | 0.00 | 9 | 1000.6 |
| 20260508044216 | 7 | 90 | 0.0 | 0.0 | 0.00 | 0.00 | 0.00 | 8 | 1001.1 |
| 20260508043709 | 7 | 90 | 0.0 | 0.0 | 0.00 | 0.00 | 0.00 | 8 | 1003.4 |
| 20260508043202 | 7 | 90 | 0.0 | 0.0 | 0.00 | 0.00 | 0.00 | 8 | 1000.7 |
| 20260508042655 | 7 | 45 | 0.0 | 0.0 | 0.00 | 0.00 | 0.00 | 8 | 1001.4 |
| 20260508042147 | 7 | 45 | 0.0 | 0.0 | 0.00 | 0.00 | 0.00 | 8 | 1000.6 |
| 20260508041639 | 7 | 90 | 0.0 | 0.0 | 0.00 | 0.00 | 0.00 | 8 | 1000.5 |
| 20260508041132 | 7 | 90 | 0.0 | 0.0 | 0.00 | 0.00 | 0.00 | 8 | 1001.7 |
| 20260508040624 | 7 | 90 | 0.0 | 0.0 | 0.00 | 0.00 | 0.00 | 9 | 1000.5 |
| 20260508040117 | 7 | 90 | 0.0 | 0.0 | 0.00 | 0.00 | 0.00 | 8 | 1001.0 |
| 20260508035610 | 7 | -1 | 0.0 | 0.0 | 0.00 | 0.00 | 0.00 | 8 | 1001.5 |
| 20260508035103 | 7 | 45 | 0.0 | 0.0 | 0.00 | 0.00 | 0.00 | 8 | 1000.6 |
| 20260508034556 | 7 | 90 | 0.0 | 0.0 | 0.00 | 0.00 | 0.00 | 8 | 1000.4 |
| 20260508034049 | 7 | -1 | 0.0 | 0.0 | 0.00 | 0.00 | 0.00 | 8 | 1002.3 |
| 20260508033542 | 7 | 90 | 0.0 | 0.0 | 0.00 | 0.00 | 0.00 | 8 | 1002.5 |
| 20260508033035 | 7 | 90 | 0.0 | 0.0 | 0.00 | 0.00 | 0.00 | 9 | 1001.7 |
| 20260508032527 | 7 | 45 | 0.0 | 0.0 | 0.00 | 0.00 | 0.00 | 9 | 1000.7 |
| 20260508032020 | 7 | 90 | 0.0 | 0.0 | 0.00 | 0.00 | 0.00 | 8 | 1001.2 |
| 20260508031513 | 7 | 45 | 0.0 | 0.0 | 0.00 | 0.00 | 0.00 | 8 | 1001.3 |
| 20260508031006 | 7 | -1 | 0.0 | 0.0 | 0.00 | 0.00 | 0.00 | 8 | 1000.8 |
| 20260508030459 | 7 | 45 | 0.0 | 0.0 | 0.00 | 0.00 | 0.00 | 8 | 1000.6 |
| 20260508025952 | 7 | 90 | 0.0 | 0.0 | 0.00 | 0.00 | 0.00 | 8 | 1003.7 |
| 20260508025445 | 7 | 45 | 0.0 | 0.0 | 0.00 | 0.00 | 0.00 | 9 | 1002.0 |
| 20260508024938 | 7 | 45 | 0.0 | 0.0 | 0.00 | 0.00 | 0.00 | 9 | 1002.3 |
| 20260508024431 | 7 | 45 | 0.0 | 0.0 | 0.00 | 0.00 | 0.00 | 9 | 1002.4 |
| 20260508023924 | 7 | 45 | 0.0 | 0.0 | 0.00 | 0.00 | 0.00 | 9 | 1001.7 |
| 20260508023417 | 7 | 45 | 0.0 | 0.0 | 0.00 | 0.00 | 0.00 | 9 | 1001.9 |
| 20260508022910 | 7 | 45 | 0.0 | 0.0 | 0.00 | 0.00 | 0.00 | 9 | 1001.1 |
| 20260508022403 | 7 | 45 | 0.0 | 0.0 | 0.00 | 0.00 | 0.00 | 9 | 1001.7 |
| 20260508021856 | 7 | 45 | 0.0 | 0.0 | 0.00 | 0.00 | 0.00 | 9 | 1001.5 |
| 20260508021349 | 7 | 45 | 0.0 | 0.0 | 0.00 | 0.00 | 0.00 | 9 | 1001.6 |
| 20260508020842 | 7 | 45 | 0.0 | 0.0 | 0.00 | 0.00 | 0.00 | 9 | 1001.4 |
| 20260508020335 | 7 | 45 | 0.0 | 0.0 | 0.00 | 0.00 | 0.00 | 9 | 1002.3 |
| 20260508015827 | 7 | 45 | 0.0 | 0.0 | 0.00 | 0.00 | 0.00 | 9 | 1001.8 |
| 20260508015320 | 7 | 0 | 0.0 | 0.0 | 0.00 | 0.00 | 0.00 | 9 | 1002.1 |
| 20260508014813 | 7 | 45 | 0.0 | 0.0 | 0.00 | 0.00 | 0.00 | 9 | 1002.7 |
| 20260508014306 | 7 | 0 | 0.0 | 0.0 | 0.00 | 0.00 | 0.00 | 9 | 1002.6 |
| 20260508013758 | 7 | 0 | 0.0 | 0.0 | 0.00 | 0.00 | 0.00 | 9 | 1003.3 |
| 20260508013251 | 7 | 45 | 0.0 | 0.0 | 0.00 | 0.00 | 0.00 | 9 | 1002.6 |
| 20260508012744 | 7 | -1 | 0.0 | 0.0 | 0.00 | 0.00 | 0.00 | 9 | 1003.2 |
| 20260508012237 | 7 | 45 | 0.0 | 0.0 | 0.00 | 0.00 | 0.00 | 10 | 1002.9 |
| 20260508011730 | 7 | 45 | 0.0 | 0.0 | 0.00 | 0.00 | 0.00 | 10 | 1003.6 |
| 20260508011223 | 7 | 0 | 0.0 | 0.0 | 0.00 | 0.00 | 0.00 | 9 | 1004.6 |
| 20260508010716 | 7 | 0 | 0.0 | 0.0 | 0.00 | 0.00 | 0.00 | 10 | 1004.6 |
| 20260508010209 | 7 | 45 | 0.0 | 0.0 | 0.00 | 0.00 | 0.00 | 10 | 1004.0 |
| 20260508005701 | 7 | 0 | 0.0 | 0.0 | 0.00 | 0.00 | 0.00 | 9 | 1003.9 |
| 20260508005153 | 7 | 0 | 0.0 | 0.0 | 0.00 | 0.00 | 0.00 | 10 | 1003.8 |
| 20260508004646 | 7 | -1 | 0.0 | 0.0 | 0.00 | 0.00 | 0.00 | 9 | 1003.7 |
| 20260508004138 | 7 | 0 | 0.0 | 0.0 | 0.00 | 0.00 | 0.00 | 9 | 1003.2 |
| 20260508003631 | 7 | 45 | 0.0 | 0.0 | 0.00 | 0.00 | 0.00 | 9 | 1002.7 |
| 20260508003124 | 7 | 45 | 0.0 | 0.0 | 0.00 | 0.00 | 0.00 | 9 | 1003.1 |
| 20260508002616 | 7 | 0 | 0.0 | 0.0 | 0.00 | 0.00 | 0.00 | 9 | 1004.3 |
| 20260508002108 | 7 | 45 | 0.0 | 0.0 | 0.00 | 0.00 | 0.00 | 9 | 1003.4 |
| 20260508001601 | 7 | 0 | 0.0 | 0.0 | 0.00 | 0.00 | 0.00 | 9 | 1003.1 |
| 20260508001054 | 7 | -1 | 0.0 | 0.0 | 0.00 | 0.00 | 0.00 | 9 | 1003.5 |
| 20260508000546 | 7 | 337 | 0.0 | 0.0 | 0.00 | 0.00 | 0.00 | 10 | 1004.9 |
| 20260508000039 | 7 | 0 | 0.0 | 0.0 | 0.00 | 0.00 | 0.00 | 10 | 1004.3 |
| 20260507235532 | 7 | 45 | 0.0 | 0.0 | 0.00 | 0.00 | 0.28 | 10 | 1003.6 |
| 20260507235025 | 7 | 0 | 0.0 | 0.0 | 0.00 | 0.00 | 0.28 | 9 | 1004.2 |
| 20260507234518 | 7 | 45 | 0.0 | 0.0 | 0.00 | 0.00 | 0.28 | 9 | 1003.8 |
| 20260507234011 | 7 | 0 | 0.0 | 0.0 | 0.00 | 0.00 | 0.28 | 9 | 1004.2 |
| 20260507233504 | 7 | 45 | 0.0 | 0.0 | 0.00 | 0.00 | 0.28 | 9 | 1003.9 |
| 20260507232956 | 7 | 90 | 0.0 | 0.0 | 0.00 | 0.00 | 0.28 | 10 | 1004.1 |
| 20260507232449 | 7 | 45 | 0.0 | 0.0 | 0.00 | 0.00 | 0.28 | 9 | 1004.1 |
| 20260507231941 | 7 | 90 | 0.0 | 0.0 | 0.00 | 0.00 | 0.28 | 10 | 1004.2 |
| 20260507231434 | 7 | 0 | 0.0 | 0.0 | 0.00 | 0.00 | 0.28 | 9 | 1004.4 |
| 20260507230926 | 7 | 45 | 0.0 | 0.0 | 0.00 | 0.00 | 0.28 | 10 | 1005.6 |
| 20260507230419 | 7 | 45 | 0.0 | 0.0 | 0.00 | 0.00 | 0.28 | 10 | 1005.2 |
| 20260507225912 | 7 | 45 | 0.0 | 0.0 | 0.00 | 0.00 | 0.28 | 9 | 1003.9 |
| 20260507225405 | 7 | 45 | 0.0 | 0.0 | 0.00 | 0.00 | 0.28 | 10 | 1005.1 |
| 20260507224858 | 8 | 45 | 0.0 | 0.0 | 0.00 | 0.00 | 0.28 | 10 | 1005.3 |
| 20260507224351 | 8 | 0 | 0.0 | 0.0 | 0.00 | 0.00 | 0.28 | 10 | 1005.3 |
| 20260507223843 | 7 | 337 | 0.0 | 0.0 | 0.00 | 0.00 | 0.28 | 10 | 1003.9 |
| 20260507223336 | 7 | 0 | 0.0 | 0.0 | 0.00 | 0.00 | 0.28 | 9 | 1005.0 |
| 20260507222829 | 7 | 0 | 0.0 | 0.0 | 0.00 | 0.00 | 0.28 | 9 | 1004.8 |
| 20260507222321 | 7 | 0 | 8.0 | 11.3 | 0.00 | 0.00 | 0.28 | 9 | 1005.8 |
| 20260507221814 | 7 | 0 | 8.0 | 12.9 | 0.00 | 0.00 | 0.28 | 10 | 1005.6 |
| 20260507221307 | 8 | 315 | 8.0 | 14.5 | 0.00 | 0.00 | 0.28 | 10 | 1004.9 |
| 20260507220800 | 7 | 0 | 11.3 | 17.7 | 0.00 | 0.00 | 0.28 | 10 | 1005.5 |
| 20260507220253 | 8 | 0 | 11.3 | 17.7 | 0.00 | 0.00 | 0.28 | 10 | 1004.5 |
| 20260507215746 | 8 | 0 | 9.7 | 16.1 | 0.00 | 0.00 | 0.28 | 10 | 1004.5 |
| 20260507215239 | 8 | 315 | 12.9 | 17.7 | 0.00 | 0.00 | 0.28 | 10 | 1004.8 |
| 20260507214732 | 8 | 0 | 11.3 | 19.3 | 0.00 | 0.00 | 0.28 | 10 | 1005.1 |
| 20260507214225 | 8 | 315 | 9.7 | 20.9 | 0.00 | 0.00 | 0.28 | 10 | 1005.8 |
| 20260507213718 | 8 | 315 | 11.3 | 19.3 | 0.00 | 0.00 | 0.28 | 10 | 1005.3 |
| 20260507213211 | 8 | 315 | 9.7 | 17.7 | 0.00 | 0.00 | 0.28 | 10 | 1005.2 |
| 20260507212704 | 8 | 337 | 11.3 | 19.3 | 0.00 | 0.00 | 0.28 | 10 | 1005.6 |
| 20260507212157 | 8 | 0 | 11.3 | 17.7 | 0.00 | 0.00 | 0.28 | 10 | 1004.9 |
| 20260507211650 | 8 | 0 | 9.7 | 17.7 | 0.00 | 0.00 | 0.28 | 10 | 1005.6 |
| 20260507211142 | 8 | 315 | 12.9 | 20.9 | 0.00 | 0.00 | 0.28 | 10 | 1005.0 |
| 20260507210635 | 8 | 0 | 14.5 | 24.1 | 0.00 | 0.00 | 0.28 | 10 | 1005.2 |
| 20260507210128 | 8 | 0 | 16.1 | 27.4 | 0.00 | 0.00 | 0.28 | 10 | 1005.0 |
| 20260507205620 | 8 | 0 | 14.5 | 20.9 | 0.00 | 0.00 | 0.28 | 10 | 1005.4 |
| 20260507205112 | 8 | 315 | 14.5 | 25.7 | 0.00 | 0.00 | 0.28 | 10 | 1004.8 |
| 20260507204605 | 8 | 0 | 16.1 | 25.7 | 0.00 | 0.00 | 0.28 | 10 | 1004.9 |
| 20260507204058 | 8 | 0 | 12.9 | 24.1 | 0.00 | 0.00 | 0.28 | 10 | 1005.2 |
| 20260507203551 | 8 | 0 | 14.5 | 24.1 | 0.00 | 0.00 | 0.28 | 10 | 1005.6 |
| 20260507203044 | 8 | 315 | 14.5 | 29.0 | 0.00 | 0.00 | 0.28 | 10 | 1004.6 |
| 20260507202537 | 8 | 337 | 19.3 | 29.0 | 0.00 | 0.00 | 0.28 | 10 | 1004.1 |
| 20260507202030 | 8 | -1 | 17.7 | 30.6 | 0.00 | 0.00 | 0.28 | 10 | 1004.6 |
| 20260507201523 | 8 | 315 | 16.1 | 25.7 | 0.00 | 0.00 | 0.28 | 10 | 1004.3 |
| 20260507201016 | 8 | -1 | 12.9 | 24.1 | 0.00 | 0.00 | 0.28 | 10 | 1005.0 |
| 20260507200509 | 8 | 315 | 17.7 | 25.7 | 0.00 | 0.00 | 0.28 | 10 | 1004.2 |
| 20260507200002 | 8 | 315 | 12.9 | 19.3 | 0.00 | 0.00 | 0.25 | 10 | 1005.4 |
| 20260507195455 | 8 | 0 | 14.5 | 20.9 | 0.00 | 0.00 | 0.25 | 10 | 1004.3 |
| 20260507194948 | 8 | 0 | 14.5 | 24.1 | 0.00 | 0.00 | 0.25 | 10 | 1004.6 |
| 20260507194441 | 8 | 315 | 14.5 | 20.9 | 0.00 | 0.00 | 0.25 | 10 | 1004.3 |
| 20260507193934 | 8 | -1 | 16.1 | 22.5 | 0.00 | 0.00 | 0.25 | 10 | 1003.9 |
| 20260507193427 | 9 | 315 | 9.7 | 12.9 | 0.00 | 0.00 | 0.25 | 9 | 1003.6 |
| 20260507192920 | 9 | 315 | 0.0 | 0.0 | 0.00 | 0.00 | 0.25 | 9 | 1004.9 |
| 20260507192412 | 9 | 315 | 0.0 | 0.0 | 0.00 | 0.00 | 0.25 | 10 | 1005.2 |
| 20260507191905 | 9 | 315 | 0.0 | 0.0 | 0.00 | 0.00 | 0.25 | 10 | 1004.9 |
| 20260507191358 | 9 | 315 | 8.0 | 11.3 | 0.00 | 0.00 | 0.25 | 9 | 1005.0 |
| 20260507190851 | 9 | 315 | 8.0 | 11.3 | 0.00 | 0.00 | 0.23 | 9 | 1004.7 |
| 20260507190344 | 9 | 0 | 9.7 | 14.5 | 0.00 | 0.00 | 0.23 | 9 | 1005.6 |
| 20260507185836 | 9 | 0 | 12.9 | 19.3 | 0.00 | 0.00 | 0.23 | 10 | 1005.4 |
| 20260507185329 | 9 | 0 | 11.3 | 17.7 | 0.00 | 0.00 | 0.20 | 10 | 1005.7 |
| 20260507184822 | 9 | 315 | 14.5 | 17.7 | 0.00 | 0.00 | 0.18 | 10 | 1004.6 |
| 20260507184315 | 10 | -1 | 12.9 | 17.7 | 0.00 | 0.00 | 0.18 | 10 | 1004.8 |
| 20260507183808 | 10 | -1 | 12.9 | 19.3 | 0.00 | 0.00 | 0.15 | 10 | 1003.8 |
| 20260507183301 | 10 | -1 | 0.0 | 0.0 | 0.00 | 0.00 | 0.15 | 9 | 1004.8 |
| 20260507182754 | 10 | -1 | 0.0 | 0.0 | 0.00 | 0.00 | 0.15 | 9 | 1004.3 |
| 20260507182247 | 10 | -1 | 0.0 | 0.0 | 0.00 | 0.00 | 0.13 | 9 | 1004.6 |
| 20260507181739 | 10 | -1 | 9.7 | 12.9 | 0.00 | 0.00 | 0.13 | 9 | 1004.6 |
| 20260507181231 | 10 | 315 | 0.0 | 0.0 | 0.00 | 0.00 | 0.13 | 9 | 1005.1 |
| 20260507180724 | 10 | 315 | 9.7 | 12.9 | 0.00 | 0.00 | 0.13 | 10 | 1004.4 |
| 20260507180217 | 10 | 315 | 0.0 | 0.0 | 0.00 | 0.00 | 0.13 | 9 | 1004.3 |
| 20260507175709 | 10 | 0 | 0.0 | 0.0 | 0.00 | 0.00 | 0.13 | 9 | 1005.0 |
| 20260507175202 | 10 | 0 | 0.0 | 0.0 | 0.00 | 0.00 | 0.13 | 9 | 1004.8 |
| 20260507174655 | 10 | 0 | 0.0 | 0.0 | 0.00 | 0.00 | 0.10 | 9 | 1004.8 |
| 20260507174147 | 10 | 315 | 0.0 | 0.0 | 0.00 | 0.00 | 0.10 | 9 | 1004.5 |
| 20260507173639 | 10 | 0 | 0.0 | 0.0 | 0.00 | 0.00 | 0.10 | 9 | 1003.6 |
| 20260507173132 | 10 | 315 | 0.0 | 0.0 | 0.00 | 0.00 | 0.10 | 9 | 1003.5 |
| 20260507172625 | 10 | 315 | 0.0 | 0.0 | 0.00 | 0.00 | 0.10 | 9 | 1004.6 |
| 20260507172117 | 10 | 315 | 0.0 | 0.0 | 0.00 | 0.00 | 0.08 | 9 | 1001.4 |
| 20260507171610 | 10 | -1 | 0.0 | 0.0 | 0.00 | 0.00 | 0.08 | 9 | 1004.6 |
| 20260507171102 | 10 | -1 | 0.0 | 0.0 | 0.00 | 0.00 | 0.05 | 9 | 1004.3 |
| 20260507170554 | 10 | -1 | 0.0 | 0.0 | 0.00 | 0.00 | 0.03 | 9 | 1003.1 |
| 20260507170047 | 10 | 315 | 0.0 | 0.0 | 0.00 | 0.00 | 0.03 | 9 | 1002.6 |
| 20260507165540 | 10 | 315 | 0.0 | 0.0 | 0.00 | 0.00 | 0.03 | 9 | 1001.5 |
| 20260507165032 | 10 | 0 | 8.0 | 9.7 | 0.00 | 0.00 | 0.03 | 9 | 1001.9 |
| 20260507164524 | 10 | -1 | 8.0 | 14.5 | 0.00 | 0.00 | 0.03 | 9 | 1002.3 |
| 20260507164017 | 10 | 315 | 9.7 | 16.1 | 0.00 | 0.00 | 0.03 | 9 | 1001.6 |
| 20260507163510 | 10 | -1 | 11.3 | 17.7 | 0.00 | 0.00 | 0.03 | 8 | 1001.0 |
| 20260507163003 | 10 | -1 | 9.7 | 14.5 | 0.00 | 0.00 | 0.03 | 8 | 1000.1 |
| 20260507162456 | 10 | -1 | 9.7 | 4.8 | 0.00 | 0.00 | 0.03 | 8 | 1001.7 |
| 20260507161948 | 10 | 315 | 0.0 | 0.0 | 0.00 | 0.00 | 0.03 | 8 | 1000.6 |
| 20260507161442 | 10 | 315 | 0.0 | 0.0 | 0.00 | 0.00 | 0.03 | 8 | 1001.2 |
| 20260507160935 | 10 | -1 | 9.7 | 12.9 | 0.00 | 0.00 | 0.03 | 8 | 1001.7 |
| 20260507160427 | 10 | -1 | 9.7 | 14.5 | 0.00 | 0.00 | 0.03 | 9 | 1000.9 |
| 20260507155921 | 10 | 315 | 12.9 | 20.9 | 0.00 | 0.00 | 0.03 | 9 | 1001.6 |
| 20260507155413 | 10 | -1 | 14.5 | 20.9 | 0.00 | 0.00 | 0.03 | 9 | 1000.4 |
| 20260507154907 | 10 | -1 | 14.5 | 22.5 | 0.00 | 0.00 | 0.03 | 9 | 1000.1 |
| 20260507154359 | 10 | -1 | 14.5 | 30.6 | 0.00 | 0.00 | 0.03 | 9 | 1000.3 |
| 20260507153851 | 10 | -1 | 16.1 | 24.1 | 0.00 | 0.00 | 0.03 | 9 | 999.6 |
| 20260507153344 | 10 | -1 | 17.7 | 29.0 | 0.00 | 0.00 | 0.03 | 9 | 998.5 |
| 20260507152836 | 11 | -1 | 12.9 | 17.7 | 0.00 | 0.00 | 0.03 | 8 | 1001.7 |
| 20260507152329 | 11 | -1 | 11.3 | 17.7 | 0.00 | 0.00 | 0.03 | 8 | 1001.6 |
| 20260507151821 | 11 | -1 | 11.3 | 19.3 | 0.00 | 0.00 | 0.03 | 8 | 1001.6 |
| 20260507151314 | 11 | -1 | 9.7 | 12.9 | 0.00 | 0.00 | 0.03 | 8 | 1002.3 |
| 20260507150806 | 11 | -1 | 9.7 | 16.1 | 0.00 | 0.00 | 0.03 | 8 | 999.8 |
| 20260507150259 | 11 | 225 | 8.0 | 16.1 | 0.00 | 0.00 | 0.03 | 8 | 1000.4 |
| 20260507145751 | 11 | -1 | 12.9 | 19.3 | 0.00 | 0.00 | 0.03 | 7 | 1004.2 |
| 20260507145244 | 11 | -1 | 16.1 | 27.4 | 0.00 | 0.00 | 0.03 | 8 | 998.7 |
| 20260507144736 | 11 | -1 | 14.5 | 24.1 | 0.00 | 0.00 | 0.03 | 8 | 999.4 |
| 20260507144228 | 10 | -1 | 14.5 | 20.9 | 0.00 | 0.00 | 0.03 | 8 | 1000.4 |
| 20260507143721 | 10 | -1 | 12.9 | 25.7 | 0.00 | 0.00 | 0.03 | 8 | 1000.9 |
| 20260507143212 | 10 | -1 | 16.1 | 24.1 | 0.00 | 0.00 | 0.03 | 9 | 1000.4 |
| 20260507142706 | 10 | 225 | 17.7 | 25.7 | 0.00 | 0.00 | 0.03 | 9 | 999.1 |
| 20260507142159 | 10 | -1 | 17.7 | 30.6 | 0.00 | 0.00 | 0.03 | 9 | 999.4 |
| 20260507141651 | 10 | 225 | 19.3 | 32.2 | 0.00 | 0.00 | 0.03 | 8 | 1000.9 |
| 20260507141145 | 10 | -1 | 20.9 | 32.2 | 0.00 | 0.00 | 0.03 | 9 | 998.9 |
| 20260507140637 | 10 | -1 | 22.5 | 33.8 | 0.00 | 0.00 | 0.03 | 8 | 998.4 |
| 20260507140130 | 10 | 225 | 22.5 | 32.2 | 0.00 | 0.00 | 0.03 | 9 | 998.1 |
| 20260507135622 | 10 | 225 | 25.7 | 40.2 | 0.00 | 0.00 | 0.03 | 8 | 999.1 |
| 20260507135115 | 10 | -1 | 29.0 | 53.1 | 0.00 | 0.00 | 0.03 | 8 | 998.1 |
| 20260507134607 | 12 | -1 | 20.9 | 45.1 | 0.00 | 0.00 | 0.00 | 8 | 997.2 |
| 20260507134059 | 12 | -1 | 19.3 | 33.8 | 0.00 | 0.00 | 0.00 | 7 | 996.2 |
| 20260507133551 | 12 | -1 | 20.9 | 33.8 | 0.00 | 0.00 | 0.00 | 7 | 994.1 |
| 20260507133044 | 12 | 225 | 17.7 | 33.8 | 0.00 | 0.00 | 0.00 | 7 | 998.1 |
| 20260507132537 | 12 | -1 | 20.9 | 33.8 | 0.00 | 0.00 | 0.00 | 7 | 997.8 |
| 20260507132030 | 12 | -1 | 12.9 | 20.9 | 0.00 | 0.00 | 0.00 | 7 | 1001.0 |
| 20260507131522 | 12 | -1 | 16.1 | 27.4 | 0.00 | 0.00 | 0.00 | 7 | 998.7 |
| 20260507131015 | 12 | 225 | 25.7 | 43.5 | 0.00 | 0.00 | 0.00 | 7 | 998.6 |
| 20260507130507 | 12 | -1 | 22.5 | 35.4 | 0.00 | 0.00 | 0.00 | 7 | 993.7 |
| 20260507130000 | 13 | 225 | 25.7 | 37.0 | 0.00 | 0.00 | 0.00 | 7 | 993.1 |
| 20260507125453 | 13 | -1 | 20.9 | 35.4 | 0.00 | 0.00 | 0.00 | 6 | 995.3 |
| 20260507124946 | 13 | -1 | 22.5 | 32.2 | 0.00 | 0.00 | 0.00 | 7 | 992.9 |
| 20260507124439 | 12 | -1 | 17.7 | 27.4 | 0.00 | 0.00 | 0.00 | 6 | 996.8 |
| 20260507123931 | 12 | 225 | 17.7 | 27.4 | 0.00 | 0.00 | 0.00 | 6 | 996.7 |
| 20260507123424 | 12 | -1 | 16.1 | 22.5 | 0.00 | 0.00 | 0.00 | 7 | 994.1 |
| 20260507122917 | 12 | -1 | 20.9 | 32.2 | 0.00 | 0.00 | 0.00 | 7 | 994.2 |
| 20260507122408 | 12 | 225 | 16.1 | 33.8 | 0.00 | 0.00 | 0.00 | 6 | 996.0 |
| 20260507121900 | 12 | -1 | 22.5 | 33.8 | 0.00 | 0.00 | 0.00 | 6 | 995.4 |
| 20260507121352 | 13 | 225 | 20.9 | 32.2 | 0.00 | 0.00 | 0.00 | 7 | 995.0 |
| 20260507120845 | 13 | 270 | 22.5 | 33.8 | 0.00 | 0.00 | 0.00 | 7 | 993.5 |
| 20260507120337 | 12 | -1 | 22.5 | 37.0 | 0.00 | 0.00 | 0.00 | 7 | 992.5 |
| 20260507115830 | 13 | 225 | 16.1 | 29.0 | 0.00 | 0.00 | 0.00 | 6 | 994.7 |
| 20260507115323 | 12 | -1 | 20.9 | 30.6 | 0.00 | 0.00 | 0.00 | 7 | 991.1 |
| 20260507114816 | 12 | -1 | 20.9 | 32.2 | 0.00 | 0.00 | 0.00 | 6 | 995.8 |
| 20260507114309 | 12 | -1 | 19.3 | 32.2 | 0.00 | 0.00 | 0.00 | 6 | 995.3 |
| 20260507113802 | 12 | 225 | 14.5 | 25.7 | 0.00 | 0.00 | 0.00 | 6 | 995.7 |
| 20260507113254 | 12 | -1 | 20.9 | 30.6 | 0.00 | 0.00 | 0.00 | 6 | 995.9 |
| 20260507112747 | 12 | 225 | 22.5 | 35.4 | 0.00 | 0.00 | 0.00 | 6 | 994.5 |
| 20260507112240 | 12 | -1 | 22.5 | 32.2 | 0.00 | 0.00 | 0.00 | 6 | 996.6 |
| 20260507111732 | 12 | 225 | 22.5 | 33.8 | 0.00 | 0.00 | 0.00 | 7 | 995.6 |